GW5909 Weather Reports


time (UTC)temp
F
wind
direction
speed
knots
gust
knots
rain 1hr
in
rain 24hr
in
rain mn
in
humidity
%
barometer
mb
20260503235905 64 209 0.9 7.0 0.00 0.00 0.00 40 1012.0
20260503235404 65 224 0.9 5.2 0.00 0.00 0.00 41 1012.2
20260503234404 65 208 0.9 5.2 0.00 0.00 0.00 41 1011.9
20260503233904 65 209 0.9 7.0 0.00 0.00 0.00 40 1011.9
20260503233404 65 185 2.6 7.0 0.00 0.00 0.00 40 1012.3
20260503232904 65 209 0.9 5.2 0.00 0.00 0.00 40 1012.3
20260503232405 65 241 0.0 2.6 0.00 0.00 0.00 40 1012.5
20260503231904 64 188 2.6 7.8 0.00 0.00 0.00 40 1012.4
20260503231405 64 274 0.0 5.2 0.00 0.00 0.00 40 1012.4
20260503230904 65 209 0.9 5.2 0.00 0.00 0.00 40 1012.5
20260503230404 65 201 0.0 2.6 0.00 0.00 0.00 39 1012.7
20260503225404 65 208 0.0 7.0 0.00 0.00 0.00 39 1012.9
20260503224904 66 215 0.9 7.8 0.00 0.00 0.00 38 1012.9
20260503224404 66 328 0.9 6.1 0.00 0.00 0.00 38 1012.8
20260503223904 67 291 2.6 6.1 0.00 0.00 0.00 38 1012.8
20260503223404 67 201 0.9 8.7 0.00 0.00 0.00 38 1012.8
20260503222904 67 205 0.9 7.0 0.00 0.00 0.00 38 1012.9
20260503221404 67 211 2.6 8.7 0.00 0.00 0.00 39 1013.1
20260503220904 67 282 0.9 4.3 0.00 0.00 0.00 39 1013.1
20260503220404 67 192 0.9 5.2 0.00 0.00 0.00 38 1013.2
20260503215904 67 263 0.9 5.2 0.00 0.00 0.00 38 1013.2
20260503215404 67 189 0.9 6.1 0.00 0.00 0.00 38 1013.4
20260503214904 67 287 1.7 10.4 0.00 0.00 0.00 39 1013.5
20260503214403 67 298 1.7 11.3 0.00 0.00 0.00 39 1013.2
20260503213904 67 195 0.9 2.6 0.00 0.00 0.00 38 1013.3
20260503213404 67 186 1.7 10.4 0.00 0.00 0.00 38 1013.4
20260503212904 67 274 0.0 7.8 0.00 0.00 0.00 39 1013.1
20260503212404 67 203 0.9 12.2 0.00 0.00 0.00 38 1013.3
20260503211904 67 185 4.3 10.4 0.00 0.00 0.00 38 1013.6
20260503211404 67 306 2.6 10.4 0.00 0.00 0.00 38 1013.4
20260503210904 67 70 1.7 6.1 0.00 0.00 0.00 39 1013.6
20260503210404 67 176 1.7 10.4 0.00 0.00 0.00 39 1013.8
20260503205904 67 295 0.9 8.7 0.00 0.00 0.00 39 1013.7
20260503205404 67 221 0.9 7.8 0.00 0.00 0.00 39 1013.6
20260503204904 68 203 1.7 7.8 0.00 0.00 0.00 39 1013.7
20260503203904 68 220 1.7 7.8 0.00 0.00 0.00 39 1014.0
20260503202904 67 199 4.3 13.0 0.00 0.00 0.00 39 1013.8
20260503202404 67 270 0.9 5.2 0.00 0.00 0.00 39 1014.1
20260503201904 68 269 0.0 6.1 0.00 0.00 0.00 39 1014.5
20260503201403 68 240 0.0 6.1 0.00 0.00 0.00 40 1014.5
20260503200904 68 219 0.9 10.4 0.00 0.00 0.00 40 1014.6
20260503200404 68 188 0.9 4.3 0.00 0.00 0.00 40 1014.7
20260503195904 68 284 1.7 11.3 0.00 0.00 0.00 40 1014.9
20260503194903 68 240 1.7 8.7 0.00 0.00 0.00 39 1015.0
20260503194403 68 241 1.7 7.8 0.00 0.00 0.00 40 1015.1
20260503193904 68 189 2.6 8.7 0.00 0.00 0.00 40 1015.1
20260503193404 68 186 3.5 7.0 0.00 0.00 0.00 40 1015.2
20260503192904 68 260 1.7 8.7 0.00 0.00 0.00 41 1015.4
20260503191904 68 183 4.3 14.8 0.00 0.00 0.00 41 1015.6
20260503191403 68 193 4.3 11.3 0.00 0.00 0.00 42 1015.5
20260503190904 68 195 0.9 5.2 0.00 0.00 0.00 42 1015.6
20260503185903 67 195 1.7 7.0 0.00 0.00 0.00 41 1015.8
20260503185404 67 306 3.5 8.7 0.00 0.00 0.00 41 1015.8
20260503184904 67 266 0.9 7.8 0.00 0.00 0.00 42 1015.9
20260503183903 66 180 3.5 10.4 0.00 0.00 0.00 41 1016.2
20260503182904 66 193 0.9 5.2 0.00 0.00 0.00 41 1016.2
20260503182403 67 186 0.9 8.7 0.00 0.00 0.00 41 1016.3
20260503181904 67 250 0.9 7.8 0.00 0.00 0.00 42 1016.2
20260503181404 67 211 1.7 6.1 0.00 0.00 0.00 42 1016.3
20260503180904 67 171 2.6 13.9 0.00 0.00 0.00 43 1016.3
20260503180403 66 169 4.3 10.4 0.00 0.00 0.00 42 1016.4
20260503175904 66 169 5.2 10.4 0.00 0.00 0.00 42 1016.7
20260503175403 66 246 0.9 5.2 0.00 0.00 0.00 42 1016.6
20260503173903 67 184 3.5 10.4 0.00 0.00 0.00 43 1016.9
20260503173403 67 196 0.9 10.4 0.00 0.00 0.00 43 1017.1
20260503172904 67 208 2.6 10.4 0.00 0.00 0.00 43 1017.0
20260503172403 66 227 2.6 7.8 0.00 0.00 0.00 44 1017.3
20260503171903 66 156 1.7 4.3 0.00 0.00 0.00 43 1017.4
20260503171403 66 261 2.6 8.7 0.00 0.00 0.00 44 1017.6
20260503170903 66 168 2.6 7.0 0.00 0.00 0.00 43 1017.5
20260503150405 65 298 2.6 10.4 0.00 0.00 0.00 57 1018.9
20260503131405 48 197 0.9 7.0 0.00 0.00 0.00 83 1019.9
20260503130906 47 203 0.9 4.3 0.00 0.00 0.00 83 1020.1
20260503130406 46 191 0.9 4.3 0.00 0.00 0.00 83 1020.2
20260503090405 33 317 0.0 0.0 0.00 0.00 0.00 78 1020.0
20260503081405 34 317 0.0 0.0 0.00 0.00 0.00 76 1019.8
20260503080905 34 317 0.0 0.0 0.00 0.00 0.00 76 1019.5
20260503072905 35 317 0.0 0.0 0.00 0.00 0.00 75 1019.3
20260503072405 35 317 0.0 0.0 0.00 0.00 0.00 75 1019.5
20260503071906 35 317 0.0 0.0 0.00 0.00 0.00 75 1019.5
20260503071405 35 317 0.0 0.0 0.00 0.00 0.00 74 1019.5
20260503070905 35 317 0.0 0.0 0.00 0.00 0.00 74 1019.5
20260503070405 35 317 0.0 0.0 0.00 0.00 0.00 74 1019.3
20260503054905 36 317 0.0 0.0 0.00 0.00 0.00 71 1019.6
20260503054404 37 317 0.0 0.0 0.00 0.00 0.00 71 1019.5
20260503053904 37 317 0.0 0.0 0.00 0.00 0.00 71 1019.5
20260503053405 37 317 0.0 0.0 0.00 0.00 0.00 71 1019.5
20260503052905 37 317 0.0 0.0 0.00 0.00 0.00 71 1019.6
20260503052405 37 317 0.0 0.0 0.00 0.00 0.00 70 1019.4
20260503051905 37 317 0.0 0.0 0.00 0.00 0.00 70 1019.4
20260503051406 37 317 0.0 0.0 0.00 0.00 0.00 70 1019.7
20260503050905 37 317 0.0 0.0 0.00 0.00 0.00 70 1019.5
20260503050405 38 317 0.0 0.0 0.00 0.00 0.00 69 1019.5
20260503045904 38 317 0.0 0.0 0.00 0.00 0.00 69 1019.6
20260503045405 38 317 0.0 0.0 0.00 0.00 0.00 69 1019.8
20260503044905 38 317 0.0 0.0 0.00 0.00 0.00 69 1019.5
20260503044405 38 317 0.0 0.0 0.00 0.00 0.00 68 1019.3
20260503043904 38 317 0.0 0.0 0.00 0.00 0.00 68 1019.4
20260503042905 39 317 0.0 0.0 0.00 0.00 0.00 68 1019.2
20260503042405 39 317 0.0 0.0 0.00 0.00 0.00 68 1019.3
20260503041404 40 317 0.0 0.0 0.00 0.00 0.00 67 1019.1
20260503040904 40 317 0.0 0.0 0.00 0.00 0.00 67 1019.1
20260503040404 40 317 0.0 0.0 0.00 0.00 0.00 67 1019.1
20260503035905 41 317 0.0 0.0 0.00 0.00 0.00 66 1018.8
20260503035405 41 317 0.0 0.0 0.00 0.00 0.00 66 1018.9
20260503034905 41 317 0.0 0.0 0.00 0.00 0.00 66 1019.0
20260503034405 42 319 0.0 0.0 0.00 0.00 0.00 66 1018.9
20260503033905 42 320 0.0 0.0 0.00 0.00 0.00 66 1018.8
20260503033405 42 320 0.0 0.0 0.00 0.00 0.00 67 1018.7
20260503032905 42 320 0.0 0.0 0.00 0.00 0.00 67 1018.8
20260503032404 42 320 0.0 0.9 0.00 0.00 0.00 67 1018.8
20260503031905 42 320 0.0 0.0 0.00 0.00 0.00 67 1018.7
20260503031405 42 320 0.0 0.0 0.00 0.00 0.00 66 1018.7
20260503030905 42 320 0.0 0.0 0.00 0.00 0.00 66 1018.7
20260503030404 42 320 0.0 0.0 0.00 0.00 0.00 66 1019.0
20260503025905 42 320 0.0 0.0 0.00 0.00 0.00 66 1018.8
20260503025405 42 320 0.0 0.0 0.00 0.00 0.00 65 1018.8
20260503024904 42 320 0.0 0.0 0.00 0.00 0.00 65 1018.8
20260503024404 42 320 0.0 0.0 0.00 0.00 0.00 64 1018.4
20260503023904 42 320 0.0 0.0 0.00 0.00 0.00 64 1018.7
20260503023405 42 320 0.0 0.0 0.00 0.00 0.00 63 1018.4
20260503022905 42 320 0.0 0.0 0.00 0.00 0.00 63 1018.5
20260503022404 43 320 0.0 0.0 0.00 0.00 0.00 63 1018.2
20260503021905 43 320 0.0 0.0 0.00 0.00 0.00 62 1018.4
20260503021404 43 320 0.0 0.0 0.00 0.00 0.00 62 1018.1
20260503020905 44 320 0.0 0.0 0.00 0.00 0.00 62 1017.9
20260503020405 44 320 0.0 0.0 0.00 0.00 0.00 61 1018.0
20260503015905 44 320 0.0 0.0 0.00 0.00 0.00 61 1017.6
20260503015404 44 320 0.0 0.0 0.00 0.00 0.00 60 1017.6
20260503014405 45 320 0.0 0.0 0.00 0.00 0.00 60 1017.4
20260503013904 46 320 0.0 0.0 0.00 0.00 0.00 59 1017.2
20260503013405 46 320 0.0 0.0 0.00 0.00 0.00 59 1017.2
20260503012905 47 320 0.0 0.0 0.00 0.00 0.00 59 1017.4
20260503012404 47 320 0.0 0.0 0.00 0.00 0.00 59 1017.4
20260503011904 48 320 0.0 0.9 0.00 0.00 0.00 59 1017.1
20260503011404 48 320 0.0 0.9 0.00 0.00 0.00 59 1017.0
20260503010904 48 320 0.0 2.6 0.00 0.00 0.00 58 1017.0
20260503010404 48 279 2.6 6.1 0.00 0.00 0.00 58 1016.6
20260503005405 49 312 0.0 0.0 0.00 0.00 0.00 57 1016.6
20260503004404 50 312 0.0 0.0 0.00 0.00 0.00 55 1016.5
20260503003904 50 312 0.0 0.0 0.00 0.00 0.00 55 1016.6
20260503003404 50 312 0.0 0.0 0.00 0.00 0.00 54 1016.2
20260503002904 51 312 0.0 0.0 0.00 0.00 0.00 53 1016.3
20260503001905 52 312 0.0 0.9 0.00 0.00 0.00 52 1015.8
20260503001405 53 299 0.9 4.3 0.00 0.00 0.00 52 1016.0
20260503000904 53 312 0.9 2.6 0.00 0.00 0.00 52 1015.9